DELTA 1 DEB, 10865

Orbit data source: Space-Track

DELTA 1 DEB, 10865 is space debris in SSO originally from a launch on Thu, 29 Jul 1976 UTC launched from the Air Force Western Test Range (AFWTR). Debris objects in space refer to the collection of defunct objects orbiting the Earth. Examples of debris include non-operational satellites, rocket bodies, and fragments generated from explosions, collisions, or faulty payload assembly.

Loading next visibility...
Identifier
10865, 1976-077CT
Orbit
SSO
Country
Flag of USUS
Related business
Manufacturer
Unknown
Mission
Spacecraft
Bus & Motor
Unknown
Mass
Unknown
Launch date (UTC)
1976-07-29 (50 years ago)
Launch vehicle
Unknown
Launch site
Air Force Western Test Range (AFWTR)
Object type
Payload
Rocket body
Debris
Shape & HBR
Unknown shape, 0.1 m
Radar Cross Section
Small (<0.1 m²)

Expand to show TLE details & history
Last TLE update: 7 hours ago

TLE from 7 hours ago
0 DELTA 1 DEB
1 10865U 76077CT  26048.84434620 -.00000044  00000-0 -19115-5 0  9990
2 10865 102.3833 357.3679 0111804   2.0463  19.9873 12.20357742208327
Epoch: 2026-02-17T20:15Z
TLE epoch observation values (Epoch: 2026-02-17T20:15:51.511Z)
Latitude
21.94199°
Longitude
-99.46472°
Altitude
1,509.669 km
Speed
7.149 km/s
True Right ascension
23h 29m 16s
True Declination
21° 50' 04"
Sunlit
Object was in daylight at epoch
Visualization orbit readout
Latitude
Unknown
Longitude
Unknown
Altitude
Unknown
Speed
Unknown
Apparent Right ascension
Unknown
Apparent Declination
Unknown
Sunlit
N/A
Visualization observer readout
Local Sidereal Time
06:21:21
Azimuth
Unknown
Elevation
Unknown
Doppler factor
Unknown
Orbital elements
Apogee altitude
1,677.678 km
Perigee altitude
1,499.535 km
Semi-major axis
7,966.744 km
Eccentricity
0.01118
Inclination
102.3833°
RAAN
357.3679°
Arg. of periapsis
2.0463°
True anomaly
20.43104°
Mean anomaly
19.9873°
Eccentric anomaly
20.20858°
Mean motion
3.05226 °/min
Orbital period
117.95 mins
BSTAR
-0.0000019115
Loading maneuver chart data...
Computing Atmospheric mass density...
Loading historical data...
Loading historical data...
Loading historical data...
Loading historical data...
Loading historical data...
Loading historical data...
Loading historical data...

Documentation

Showing up to 5 results
|